Location: Peterborough
(44.3091°N, 78.3197°W)
Time: 04:59:50
(UTC-04:00)

Tiros 1 despin weight - Pass Details

Date: 25 March 2023
Orbit: 586 x 632 km, 48.2° (Epoch: 08 June)

Event Time Altitude Azimuth Distance (km) Brightness Sun altitude
Rises 01:00:55 0° 279° (W) 2,821 - -43.8°
Reaches altitude 10° 01:03:15 10° 284° (WNW) 1,925 - -43.8°
Maximum altitude 01:07:33 50° 1° (N) 763 - -43.9°
Drops below altitude 10° 01:11:55 10° 78° (ENE) 1,953 - -43.9°
Sets 01:14:18 0° 83° (E) 2,866 - -44.0°
